Location: Oshawa
(43.9000°N, 78.8670°W)
Time: 04:46:26
(UTC-04:00)

SPOT 5 - Visible Passes

Search period start: 26 September 2016 00:00
Search period end: 06 October 2016 00:00
Orbit: 623 x 816 km, 98.4° (Epoch: 25 September)

Date Brightness Start Highest point End Pass type
(mag) Time Alt. Az. Time Alt. Az. Time Alt. Az.
26 Sep 4.9 20:36:13 10° NE 20:36:13 10° NE 20:36:15 10° NE visible
26 Sep 4.9 22:15:28 20° NNW 22:15:28 20° NNW 22:16:49 10° NNW visible
27 Sep 4.6 21:24:59 18° NNE 21:24:59 18° NNE 21:26:25 10° N visible
27 Sep 5.8 23:04:14 10° NW 23:04:14 10° NW 23:04:19 10° NW visible
28 Sep 5.0 22:13:46 18° NNW 22:13:46 18° NNW 22:14:53 10° NNW visible
29 Sep 4.7 21:23:17 16° NNE 21:23:17 16° NNE 21:24:27 10° N visible
30 Sep 5.2 22:12:03 16° NNW 22:12:03 16° NNW 22:12:57 10° NNW visible
01 Oct 4.9 21:21:34 15° NNE 21:21:34 15° NNE 21:22:29 10° N visible
02 Oct 5.3 22:10:20 14° NNW 22:10:20 14° NNW 22:11:02 10° NNW visible
03 Oct 5.0 21:19:50 13° NNE 21:19:50 13° NNE 21:20:30 10° N visible
04 Oct 5.4 22:08:36 13° NNW 22:08:36 13° NNW 22:09:06 10° NNW visible
05 Oct 5.1 21:18:06 12° NNE 21:18:06 12° NNE 21:18:33 10° N visible
